Time,TemperatureF,DewpointF,PressureIn,WindDirection,WindDirectionDegrees,WindSpeedMPH,WindSpeedGustMPH,Humidity,HourlyPrecipIn,Conditions,Clouds,dailyrainin,SoftwareType,DateUTC
2013-12-09 00:00:00,32.0,32.0,30.32,ENE,77,6.9,-999.9,100,-99.99,,,-99.99,,2013-12-09 05:00:00,
2013-12-09 00:02:00,32.0,32.0,30.32,ENE,69,9.2,-999.9,100,-99.99,,,-99.99,,2013-12-09 05:02:00,
2013-12-09 00:08:00,32.0,32.0,30.32,ENE,69,9.2,-999.9,100,-99.99,,,-99.99,,2013-12-09 05:08:00,
2013-12-09 00:14:00,32.0,32.0,30.30,East,82,5.8,-999.9,100,-99.99,,,-99.99,,2013-12-09 05:14:00,
2013-12-09 00:20:00,32.0,32.0,30.30,East,82,5.8,-999.9,100,-99.99,,,-99.99,,2013-12-09 05:20:00,
2013-12-09 00:26:00,32.0,32.0,30.31,ENE,58,10.4,-999.9,100,-99.99,,,-99.99,,2013-12-09 05:26:00,
2013-12-09 00:32:00,32.0,32.0,30.29,NE,46,11.5,-999.9,100,-99.99,,,-99.99,,2013-12-09 05:32:00,
2013-12-09 00:38:00,32.0,32.0,30.29,NE,46,11.5,-999.9,100,-99.99,,,-99.99,,2013-12-09 05:38:00,
2013-12-09 00:44:00,32.0,32.0,30.29,NE,42,13.8,-999.9,100,-99.99,,,-99.99,,2013-12-09 05:44:00,
2013-12-09 00:50:00,32.0,32.0,30.29,NE,42,13.8,-999.9,100,-99.99,,,-99.99,,2013-12-09 05:50:00,
2013-12-09 00:56:00,32.0,32.0,30.27,NE,36,15.0,-999.9,100,-99.99,,,-99.99,,2013-12-09 05:56:00,
2013-12-09 02:02:00,33.8,33.8,30.25,ENE,63,8.1,-999.9,100,-99.99,,,-99.99,,2013-12-09 07:02:00,
2013-12-09 02:08:00,33.8,33.8,30.25,ENE,63,8.1,-999.9,100,-99.99,,,-99.99,,2013-12-09 07:08:00,
2013-12-09 02:14:00,33.8,33.8,30.24,NE,50,15.0,-999.9,100,-99.99,,,-99.99,,2013-12-09 07:14:00,
2013-12-09 02:20:00,33.8,33.8,30.24,NE,50,15.0,-999.9,100,-99.99,,,-99.99,,2013-12-09 07:20:00,
2013-12-09 02:26:00,33.8,33.8,30.25,ENE,63,13.8,-999.9,100,-99.99,,,-99.99,,2013-12-09 07:26:00,
2013-12-09 02:32:00,33.8,33.8,30.23,ENE,75,16.1,-999.9,100,-99.99,,,-99.99,,2013-12-09 07:32:00,
2013-12-09 02:38:00,33.8,33.8,30.23,ENE,75,16.1,-999.9,100,-99.99,,,-99.99,,2013-12-09 07:38:00,
2013-12-09 02:44:00,33.8,33.8,30.23,ENE,69,6.9,-999.9,100,-99.99,,,-99.99,,2013-12-09 07:44:00,
2013-12-09 02:50:00,33.8,33.8,30.23,ENE,69,6.9,-999.9,100,-99.99,,,-99.99,,2013-12-09 07:50:00,
2013-12-09 02:56:00,33.8,33.8,30.22,ENE,76,5.8,-999.9,100,-99.99,,,-99.99,,2013-12-09 07:56:00,
2013-12-09 03:02:00,33.8,33.8,30.22,ENE,76,15.0,-999.9,100,-99.99,,,-99.99,,2013-12-09 08:02:00,
2013-12-09 03:08:00,33.8,33.8,30.22,ENE,76,15.0,-999.9,100,-99.99,,,-99.99,,2013-12-09 08:08:00,
2013-12-09 03:14:00,33.8,33.8,30.22,ENE,76,9.2,-999.9,100,-99.99,,,-99.99,,2013-12-09 08:14:00,
2013-12-09 03:20:00,33.8,33.8,30.22,ENE,76,9.2,-999.9,100,-99.99,,,-99.99,,2013-12-09 08:20:00,
2013-12-09 03:26:00,33.8,33.8,30.21,ENE,64,11.5,-999.9,100,-99.99,,,-99.99,,2013-12-09 08:26:00,
2013-12-09 03:32:00,33.8,33.8,30.19,ENE,68,11.5,-999.9,100,-99.99,,,-99.99,,2013-12-09 08:32:00,
2013-12-09 03:38:00,33.8,33.8,30.19,ENE,68,11.5,-999.9,100,-99.99,,,-99.99,,2013-12-09 08:38:00,
2013-12-09 03:44:00,33.8,33.8,30.19,ENE,70,11.5,-999.9,100,-99.99,,,-99.99,,2013-12-09 08:44:00,
2013-12-09 03:50:00,33.8,33.8,30.19,ENE,70,11.5,-999.9,100,-99.99,,,-99.99,,2013-12-09 08:50:00,
2013-12-09 03:56:00,33.8,33.8,30.18,ENE,76,8.1,-999.9,100,-99.99,,,-99.99,,2013-12-09 08:56:00,
2013-12-09 04:02:00,33.8,33.8,30.18,ENE,78,15.0,-999.9,100,-99.99,,,-99.99,,2013-12-09 09:02:00,
2013-12-09 04:08:00,33.8,33.8,30.18,ENE,78,15.0,-999.9,100,-99.99,,,-99.99,,2013-12-09 09:08:00,
2013-12-09 04:14:00,33.8,33.8,30.17,ENE,76,16.1,-999.9,100,-99.99,,,-99.99,,2013-12-09 09:14:00,
2013-12-09 04:20:00,33.8,33.8,30.17,ENE,76,16.1,-999.9,100,-99.99,,,-99.99,,2013-12-09 09:20:00,
2013-12-09 04:26:00,33.8,33.8,30.16,ENE,68,9.2,-999.9,100,-99.99,,,-99.99,,2013-12-09 09:26:00,
2013-12-09 04:32:00,33.8,33.8,30.15,ENE,63,11.5,-999.9,100,-99.99,,,-99.99,,2013-12-09 09:32:00,
2013-12-09 04:38:00,33.8,33.8,30.15,ENE,63,11.5,-999.9,100,-99.99,,,-99.99,,2013-12-09 09:38:00,
2013-12-09 04:44:00,33.8,33.8,30.14,ENE,65,12.7,-999.9,100,-99.99,,,-99.99,,2013-12-09 09:44:00,
2013-12-09 04:50:00,33.8,33.8,30.14,ENE,65,12.7,-999.9,100,-99.99,,,-99.99,,2013-12-09 09:50:00,
2013-12-09 04:56:00,33.8,33.8,30.14,East,86,19.6,-999.9,100,-99.99,,,-99.99,,2013-12-09 09:56:00,
2013-12-09 05:02:00,33.8,33.8,30.14,ENE,70,11.5,-999.9,100,-99.99,,,-99.99,,2013-12-09 10:02:00,
2013-12-09 05:08:00,33.8,33.8,30.14,ENE,70,11.5,-999.9,100,-99.99,,,-99.99,,2013-12-09 10:08:00,
2013-12-09 05:14:00,35.6,35.6,30.13,ENE,71,9.2,-999.9,100,-99.99,,,-99.99,,2013-12-09 10:14:00,
2013-12-09 05:20:00,35.6,35.6,30.13,ENE,71,9.2,-999.9,100,-99.99,,,-99.99,,2013-12-09 10:20:00,
2013-12-09 05:26:00,35.6,35.6,30.13,East,80,15.0,-999.9,100,-99.99,,,-99.99,,2013-12-09 10:26:00,
2013-12-09 05:32:00,35.6,35.6,30.16,ENE,73,10.4,-999.9,100,-99.99,,,-99.99,,2013-12-09 10:32:00,
2013-12-09 05:38:00,35.6,35.6,30.16,ENE,73,10.4,-999.9,100,-99.99,,,-99.99,,2013-12-09 10:38:00,
2013-12-09 05:44:00,35.6,35.6,30.17,ENE,71,9.2,-999.9,100,-99.99,,,-99.99,,2013-12-09 10:44:00,
2013-12-09 05:50:00,35.6,35.6,30.17,ENE,71,9.2,-999.9,100,-99.99,,,-99.99,,2013-12-09 10:50:00,
2013-12-09 05:56:00,35.6,35.6,30.17,ENE,63,18.4,-999.9,100,-99.99,,,-99.99,,2013-12-09 10:56:00,
2013-12-09 06:02:00,35.6,35.6,30.17,ENE,59,17.3,-999.9,100,-99.99,,,-99.99,,2013-12-09 11:02:00,
2013-12-09 06:08:00,35.6,35.6,30.17,ENE,59,17.3,-999.9,100,-99.99,,,-99.99,,2013-12-09 11:08:00,
2013-12-09 06:14:00,35.6,35.6,30.17,ENE,72,12.7,-999.9,100,-99.99,,,-99.99,,2013-12-09 11:14:00,
2013-12-09 06:20:00,35.6,35.6,30.17,ENE,72,12.7,-999.9,100,-99.99,,,-99.99,,2013-12-09 11:20:00,
2013-12-09 06:26:00,35.6,35.6,30.17,ENE,65,15.0,-999.9,100,-99.99,,,-99.99,,2013-12-09 11:26:00,
2013-12-09 06:32:00,35.6,35.6,30.18,ENE,72,10.4,-999.9,100,-99.99,,,-99.99,,2013-12-09 11:32:00,
2013-12-09 06:38:00,35.6,35.6,30.18,ENE,72,10.4,-999.9,100,-99.99,,,-99.99,,2013-12-09 11:38:00,
2013-12-09 06:44:00,35.6,35.6,30.17,NE,52,18.4,-999.9,100,-99.99,,,-99.99,,2013-12-09 11:44:00,
2013-12-09 06:50:00,35.6,35.6,30.17,NE,52,18.4,-999.9,100,-99.99,,,-99.99,,2013-12-09 11:50:00,
2013-12-09 06:56:00,35.6,35.6,30.16,NE,45,11.5,-999.9,100,-99.99,,,-99.99,,2013-12-09 11:56:00,
2013-12-09 07:02:00,33.8,33.8,30.16,NNE,31,19.6,-999.9,100,-99.99,,,-99.99,,2013-12-09 12:02:00,
2013-12-09 07:08:00,33.8,33.8,30.16,NNE,31,19.6,-999.9,100,-99.99,,,-99.99,,2013-12-09 12:08:00,
2013-12-09 07:14:00,33.8,33.8,30.16,NNE,18,17.3,-999.9,100,-99.99,,,-99.99,,2013-12-09 12:14:00,
2013-12-09 07:20:00,33.8,33.8,30.16,NNE,18,17.3,-999.9,100,-99.99,,,-99.99,,2013-12-09 12:20:00,
2013-12-09 07:26:00,33.8,33.8,30.15,NE,34,9.2,-999.9,100,-99.99,,,-99.99,,2013-12-09 12:26:00,
2013-12-09 07:32:00,32.0,32.0,30.13,NE,35,17.3,-999.9,100,-99.99,,,-99.99,,2013-12-09 12:32:00,
2013-12-09 07:38:00,32.0,32.0,30.13,NE,35,17.3,-999.9,100,-99.99,,,-99.99,,2013-12-09 12:38:00,
2013-12-09 07:44:00,32.0,32.0,30.13,NE,35,17.3,-999.9,100,-99.99,,,-99.99,,2013-12-09 12:44:00,
2013-12-09 07:50:00,32.0,32.0,30.13,NE,35,17.3,-999.9,100,-99.99,,,-99.99,,2013-12-09 12:50:00,
2013-12-09 07:56:00,32.0,32.0,30.12,NE,40,10.4,-999.9,100,-99.99,,,-99.99,,2013-12-09 12:56:00,
2013-12-09 08:02:00,33.8,33.8,30.12,NNE,31,12.7,-999.9,100,-99.99,,,-99.99,,2013-12-09 13:02:00,
2013-12-09 08:08:00,33.8,33.8,30.12,NNE,31,12.7,-999.9,100,-99.99,,,-99.99,,2013-12-09 13:08:00,
2013-12-09 08:14:00,33.8,33.8,30.13,NE,40,13.8,-999.9,100,-99.99,,,-99.99,,2013-12-09 13:14:00,
2013-12-09 08:20:00,33.8,33.8,30.13,NE,40,13.8,-999.9,100,-99.99,,,-99.99,,2013-12-09 13:20:00,
2013-12-09 08:26:00,33.8,33.8,30.13,NE,39,15.0,-999.9,100,-99.99,,,-99.99,,2013-12-09 13:26:00,
2013-12-09 08:32:00,33.8,33.8,30.12,ENE,64,9.2,-999.9,100,-99.99,,,-99.99,,2013-12-09 13:32:00,
2013-12-09 08:38:00,33.8,33.8,30.12,ENE,64,9.2,-999.9,100,-99.99,,,-99.99,,2013-12-09 13:38:00,
2013-12-09 08:44:00,33.8,33.8,30.13,NE,44,13.8,-999.9,100,-99.99,,,-99.99,,2013-12-09 13:44:00,
2013-12-09 08:50:00,33.8,33.8,30.13,NE,44,13.8,-999.9,100,-99.99,,,-99.99,,2013-12-09 13:50:00,
2013-12-09 08:56:00,33.8,33.8,30.12,NE,48,11.5,-999.9,100,-99.99,,,-99.99,,2013-12-09 13:56:00,
2013-12-09 09:02:00,33.8,33.8,30.13,NNE,16,10.4,-999.9,100,-99.99,,,-99.99,,2013-12-09 14:02:00,
2013-12-09 09:08:00,33.8,33.8,30.13,NNE,16,10.4,-999.9,100,-99.99,,,-99.99,,2013-12-09 14:08:00,
2013-12-09 09:14:00,33.8,33.8,30.12,NE,52,17.3,-999.9,100,-99.99,,,-99.99,,2013-12-09 14:14:00,
2013-12-09 09:20:00,33.8,33.8,30.12,NE,52,17.3,-999.9,100,-99.99,,,-99.99,,2013-12-09 14:20:00,
2013-12-09 09:26:00,35.6,35.6,30.10,ENE,64,10.4,-999.9,100,-99.99,,,-99.99,,2013-12-09 14:26:00,
2013-12-09 09:32:00,35.6,35.6,30.09,NE,54,10.4,-999.9,100,-99.99,,,-99.99,,2013-12-09 14:32:00,
2013-12-09 09:38:00,35.6,35.6,30.09,NE,54,10.4,-999.9,100,-99.99,,,-99.99,,2013-12-09 14:38:00,
2013-12-09 09:44:00,35.6,35.6,30.08,NE,54,19.6,-999.9,100,-99.99,,,-99.99,,2013-12-09 14:44:00,
2013-12-09 09:50:00,35.6,35.6,30.08,NE,54,19.6,-999.9,100,-99.99,,,-99.99,,2013-12-09 14:50:00,
2013-12-09 09:56:00,35.6,35.6,30.09,NE,44,11.5,-999.9,100,-99.99,,,-99.99,,2013-12-09 14:56:00,
2013-12-09 10:02:00,35.6,35.6,30.09,NE,44,16.1,-999.9,100,-99.99,,,-99.99,,2013-12-09 15:02:00,
2013-12-09 10:08:00,35.6,35.6,30.09,NE,44,16.1,-999.9,100,-99.99,,,-99.99,,2013-12-09 15:08:00,
2013-12-09 10:14:00,35.6,35.6,30.07,NE,43,19.6,-999.9,100,-99.99,,,-99.99,,2013-12-09 15:14:00,
2013-12-09 10:20:00,35.6,35.6,30.07,NE,43,19.6,-999.9,100,-99.99,,,-99.99,,2013-12-09 15:20:00,
2013-12-09 10:26:00,37.4,37.4,30.06,NE,41,9.2,-999.9,100,-99.99,,,-99.99,,2013-12-09 15:26:00,
2013-12-09 10:32:00,35.6,35.6,30.06,NE,42,16.1,-999.9,100,-99.99,,,-99.99,,2013-12-09 15:32:00,
2013-12-09 10:38:00,35.6,35.6,30.06,NE,42,16.1,-999.9,100,-99.99,,,-99.99,,2013-12-09 15:38:00,
2013-12-09 10:44:00,35.6,35.6,30.07,NNE,16,13.8,-999.9,100,-99.99,,,-99.99,,2013-12-09 15:44:00,
2013-12-09 10:50:00,35.6,35.6,30.07,NNE,16,13.8,-999.9,100,-99.99,,,-99.99,,2013-12-09 15:50:00,
2013-12-09 10:56:00,35.6,35.6,30.06,NE,39,13.8,-999.9,100,-99.99,,,-99.99,,2013-12-09 15:56:00,
2013-12-09 11:02:00,35.6,35.6,30.06,NNE,20,8.1,-999.9,100,-99.99,,,-99.99,,2013-12-09 16:02:00,
2013-12-09 11:08:00,35.6,35.6,30.06,NNE,20,8.1,-999.9,100,-99.99,,,-99.99,,2013-12-09 16:08:00,
2013-12-09 11:14:00,35.6,35.6,30.05,NE,39,11.5,-999.9,100,-99.99,,,-99.99,,2013-12-09 16:14:00,
2013-12-09 11:20:00,35.6,35.6,30.05,NE,39,11.5,-999.9,100,-99.99,,,-99.99,,2013-12-09 16:20:00,
2013-12-09 11:26:00,35.6,35.6,30.05,NE,47,11.5,-999.9,100,-99.99,,,-99.99,,2013-12-09 16:26:00,
2013-12-09 11:32:00,35.6,35.6,30.04,NNE,32,5.8,-999.9,100,-99.99,,,-99.99,,2013-12-09 16:32:00,
2013-12-09 11:38:00,35.6,35.6,30.04,NNE,32,5.8,-999.9,100,-99.99,,,-99.99,,2013-12-09 16:38:00,
2013-12-09 11:44:00,35.6,35.6,30.02,NNE,15,8.1,-999.9,100,-99.99,,,-99.99,,2013-12-09 16:44:00,
2013-12-09 11:50:00,35.6,35.6,30.02,NNE,15,8.1,-999.9,100,-99.99,,,-99.99,,2013-12-09 16:50:00,
2013-12-09 11:56:00,35.6,35.6,30.02,NNE,26,6.9,-999.9,100,-99.99,,,-99.99,,2013-12-09 16:56:00,
2013-12-09 12:02:00,37.4,37.4,29.99,NNE,28,5.8,-999.9,100,-99.99,,,-99.99,,2013-12-09 17:02:00,
2013-12-09 12:08:00,37.4,37.4,29.99,NNE,28,5.8,-999.9,100,-99.99,,,-99.99,,2013-12-09 17:08:00,
2013-12-09 12:14:00,37.4,37.4,29.99,NNE,31,11.5,-999.9,100,-99.99,,,-99.99,,2013-12-09 17:14:00,
2013-12-09 12:20:00,37.4,37.4,29.99,NNE,31,11.5,-999.9,100,-99.99,,,-99.99,,2013-12-09 17:20:00,
2013-12-09 12:26:00,37.4,37.4,29.99,NE,39,8.1,-999.9,100,-99.99,,,-99.99,,2013-12-09 17:26:00,
2013-12-09 12:32:00,37.4,37.4,29.91,NNE,27,10.4,-999.9,100,-99.99,,,-99.99,,2013-12-09 17:32:00,
2013-12-09 12:38:00,37.4,37.4,29.91,NNE,27,10.4,-999.9,100,-99.99,,,-99.99,,2013-12-09 17:38:00,
2013-12-09 12:44:00,37.4,37.4,29.93,North,5,8.1,-999.9,100,-99.99,,,-99.99,,2013-12-09 17:44:00,
2013-12-09 12:50:00,37.4,37.4,29.93,North,5,8.1,-999.9,100,-99.99,,,-99.99,,2013-12-09 17:50:00,
2013-12-09 12:56:00,37.4,37.4,29.95,NNE,12,5.8,-999.9,100,-99.99,,,-99.99,,2013-12-09 17:56:00,
2013-12-09 13:02:00,37.4,37.4,29.96,North,7,8.1,-999.9,100,-99.99,,,-99.99,,2013-12-09 18:02:00,
2013-12-09 13:08:00,37.4,37.4,29.96,North,7,8.1,-999.9,100,-99.99,,,-99.99,,2013-12-09 18:08:00,
2013-12-09 13:14:00,39.2,39.2,29.96,NNE,31,4.6,-999.9,100,-99.99,,,-99.99,,2013-12-09 18:14:00,
2013-12-09 13:20:00,39.2,39.2,29.96,NNE,31,4.6,-999.9,100,-99.99,,,-99.99,,2013-12-09 18:20:00,
2013-12-09 13:26:00,39.2,39.2,29.89,NNE,23,6.9,-999.9,100,-99.99,,,-99.99,,2013-12-09 18:26:00,
2013-12-09 13:32:00,39.2,39.2,29.89,NNW,345,6.9,-999.9,100,-99.99,,,-99.99,,2013-12-09 18:32:00,
2013-12-09 13:38:00,39.2,39.2,29.89,NNW,345,6.9,-999.9,100,-99.99,,,-99.99,,2013-12-09 18:38:00,
2013-12-09 13:44:00,39.2,39.2,29.90,NNE,14,6.9,-999.9,100,-99.99,,,-99.99,,2013-12-09 18:44:00,
2013-12-09 13:50:00,39.2,39.2,29.90,NNE,14,6.9,-999.9,100,-99.99,,,-99.99,,2013-12-09 18:50:00,
2013-12-09 13:56:00,39.2,39.2,29.91,NNW,340,9.2,-999.9,100,-99.99,,,-99.99,,2013-12-09 18:56:00,
2013-12-09 14:02:00,39.2,39.2,29.91,WNW,301,6.9,-999.9,100,-99.99,,,-99.99,,2013-12-09 19:02:00,
2013-12-09 14:08:00,39.2,39.2,29.91,WNW,301,6.9,-999.9,100,-99.99,,,-99.99,,2013-12-09 19:08:00,
2013-12-09 14:14:00,39.2,39.2,29.90,NW,307,10.4,-999.9,100,-99.99,,,-99.99,,2013-12-09 19:14:00,
2013-12-09 14:20:00,39.2,39.2,29.90,NW,307,10.4,-999.9,100,-99.99,,,-99.99,,2013-12-09 19:20:00,
2013-12-09 14:26:00,39.2,39.2,29.90,NW,321,11.5,-999.9,100,-99.99,,,-99.99,,2013-12-09 19:26:00,
2013-12-09 14:32:00,39.2,39.2,29.89,NW,306,10.4,-999.9,100,-99.99,,,-99.99,,2013-12-09 19:32:00,
2013-12-09 14:38:00,39.2,39.2,29.89,NW,306,10.4,-999.9,100,-99.99,,,-99.99,,2013-12-09 19:38:00,
2013-12-09 14:44:00,39.2,39.2,29.91,NW,314,8.1,-999.9,100,-99.99,,,-99.99,,2013-12-09 19:44:00,
2013-12-09 14:50:00,39.2,39.2,29.91,NW,314,8.1,-999.9,100,-99.99,,,-99.99,,2013-12-09 19:50:00,
2013-12-09 14:56:00,37.4,37.4,29.90,NW,311,6.9,-999.9,100,-99.99,,,-99.99,,2013-12-09 19:56:00,
2013-12-09 15:02:00,39.2,39.2,29.90,NW,326,8.1,-999.9,100,-99.99,,,-99.99,,2013-12-09 20:02:00,
2013-12-09 15:08:00,39.2,39.2,29.90,NW,326,8.1,-999.9,100,-99.99,,,-99.99,,2013-12-09 20:08:00,
2013-12-09 15:14:00,39.2,39.2,29.91,NW,312,6.9,-999.9,100,-99.99,,,-99.99,,2013-12-09 20:14:00,
2013-12-09 15:20:00,39.2,39.2,29.91,NW,312,6.9,-999.9,100,-99.99,,,-99.99,,2013-12-09 20:20:00,
2013-12-09 15:26:00,39.2,39.2,29.92,NW,304,3.5,-999.9,100,-99.99,,,-99.99,,2013-12-09 20:26:00,
2013-12-09 15:32:00,39.2,37.4,29.92,NW,318,9.2,-999.9,93,-99.99,,,-99.99,,2013-12-09 20:32:00,
2013-12-09 15:38:00,39.2,37.4,29.92,NW,318,9.2,-999.9,93,-99.99,,,-99.99,,2013-12-09 20:38:00,
2013-12-09 15:44:00,39.2,37.4,29.92,West,272,3.5,-999.9,93,-99.99,,,-99.99,,2013-12-09 20:44:00,
2013-12-09 15:50:00,39.2,37.4,29.92,West,272,3.5,-999.9,93,-99.99,,,-99.99,,2013-12-09 20:50:00,
2013-12-09 15:56:00,39.2,37.4,29.91,WNW,282,5.8,-999.9,93,-99.99,,,-99.99,,2013-12-09 20:56:00,
2013-12-09 16:02:00,39.2,37.4,29.91,West,261,6.9,-999.9,93,-99.99,,,-99.99,,2013-12-09 21:02:00,
2013-12-09 16:08:00,39.2,37.4,29.91,West,261,6.9,-999.9,93,-99.99,,,-99.99,,2013-12-09 21:08:00,
2013-12-09 16:14:00,39.2,37.4,29.91,WNW,283,6.9,-999.9,93,-99.99,,,-99.99,,2013-12-09 21:14:00,
2013-12-09 16:20:00,39.2,37.4,29.91,WNW,283,6.9,-999.9,93,-99.99,,,-99.99,,2013-12-09 21:20:00,
2013-12-09 16:26:00,39.2,37.4,29.91,WNW,300,6.9,-999.9,93,-99.99,,,-99.99,,2013-12-09 21:26:00,
2013-12-09 16:32:00,39.2,37.4,29.90,West,267,4.6,-999.9,93,-99.99,,,-99.99,,2013-12-09 21:32:00,
2013-12-09 16:38:00,39.2,37.4,29.90,West,267,4.6,-999.9,93,-99.99,,,-99.99,,2013-12-09 21:38:00,
2013-12-09 16:44:00,39.2,37.4,29.90,West,273,8.1,-999.9,93,-99.99,,,-99.99,,2013-12-09 21:44:00,
2013-12-09 16:50:00,39.2,37.4,29.90,West,273,8.1,-999.9,93,-99.99,,,-99.99,,2013-12-09 21:50:00,
2013-12-09 16:56:00,39.2,37.4,29.90,WSW,252,4.6,-999.9,93,-99.99,,,-99.99,,2013-12-09 21:56:00,
2013-12-09 17:02:00,39.2,37.4,29.90,West,276,16.1,-999.9,93,-99.99,,,-99.99,,2013-12-09 22:02:00,
2013-12-09 17:08:00,39.2,37.4,29.90,West,276,16.1,-999.9,93,-99.99,,,-99.99,,2013-12-09 22:08:00,
2013-12-09 17:14:00,39.2,37.4,29.90,West,269,11.5,-999.9,93,-99.99,,,-99.99,,2013-12-09 22:14:00,
2013-12-09 17:20:00,39.2,37.4,29.90,West,269,11.5,-999.9,93,-99.99,,,-99.99,,2013-12-09 22:20:00,
2013-12-09 17:26:00,39.2,37.4,29.90,West,276,13.8,-999.9,93,-99.99,,,-99.99,,2013-12-09 22:26:00,
2013-12-09 17:32:00,39.2,37.4,29.91,WNW,292,8.1,-999.9,93,-99.99,,,-99.99,,2013-12-09 22:32:00,
2013-12-09 17:38:00,39.2,37.4,29.91,WNW,292,8.1,-999.9,93,-99.99,,,-99.99,,2013-12-09 22:38:00,
2013-12-09 17:44:00,39.2,37.4,29.90,West,274,13.8,-999.9,93,-99.99,,,-99.99,,2013-12-09 22:44:00,
2013-12-09 17:50:00,39.2,37.4,29.90,West,274,13.8,-999.9,93,-99.99,,,-99.99,,2013-12-09 22:50:00,
2013-12-09 17:56:00,39.2,37.4,29.91,West,274,6.9,-999.9,93,-99.99,,,-99.99,,2013-12-09 22:56:00,
2013-12-09 18:02:00,39.2,37.4,29.91,WNW,295,11.5,-999.9,93,-99.99,,,-99.99,,2013-12-09 23:02:00,
2013-12-09 18:08:00,39.2,37.4,29.91,WNW,295,11.5,-999.9,93,-99.99,,,-99.99,,2013-12-09 23:08:00,
2013-12-09 18:22:00,39.2,37.4,29.91,West,268,11.5,-999.9,93,-99.99,,,-99.99,,2013-12-09 23:22:00,
2013-12-09 18:28:00,39.2,37.4,29.91,West,268,11.5,-999.9,93,-99.99,,,-99.99,,2013-12-09 23:28:00,
2013-12-09 18:34:00,39.2,37.4,29.91,West,277,16.1,-999.9,93,-99.99,,,-99.99,,2013-12-09 23:34:00,
2013-12-09 18:40:00,39.2,37.4,29.91,West,277,16.1,-999.9,93,-99.99,,,-99.99,,2013-12-09 23:40:00,
2013-12-09 19:32:00,39.2,35.6,29.93,WSW,257,15.0,-999.9,87,-99.99,,,-99.99,,2013-12-10 00:32:00,
2013-12-09 19:38:00,39.2,35.6,29.93,WSW,257,15.0,-999.9,87,-99.99,,,-99.99,,2013-12-10 00:38:00,
2013-12-09 19:44:00,39.2,35.6,29.93,West,261,17.3,-999.9,87,-99.99,,,-99.99,,2013-12-10 00:44:00,
2013-12-09 19:50:00,39.2,35.6,29.93,West,261,17.3,-999.9,87,-99.99,,,-99.99,,2013-12-10 00:50:00,
2013-12-09 19:56:00,39.2,35.6,29.94,West,262,11.5,-999.9,87,-99.99,,,-99.99,,2013-12-10 00:56:00,
2013-12-09 20:02:00,39.2,35.6,29.94,West,260,9.2,-999.9,87,-99.99,,,-99.99,,2013-12-10 01:02:00,
2013-12-09 20:08:00,39.2,35.6,29.94,West,260,9.2,-999.9,87,-99.99,,,-99.99,,2013-12-10 01:08:00,
2013-12-09 20:14:00,39.2,35.6,29.94,West,264,9.2,-999.9,87,-99.99,,,-99.99,,2013-12-10 01:14:00,
2013-12-09 20:21:00,39.2,35.6,29.94,West,263,10.4,-999.9,87,-99.99,,,-99.99,,2013-12-10 01:21:00,
2013-12-09 20:28:00,39.2,35.6,29.94,West,263,10.4,-999.9,87,-99.99,,,-99.99,,2013-12-10 01:28:00,
2013-12-09 20:34:00,39.2,35.6,29.94,West,269,12.7,-999.9,87,-99.99,,,-99.99,,2013-12-10 01:34:00,
2013-12-09 20:40:00,39.2,35.6,29.94,West,269,12.7,-999.9,87,-99.99,,,-99.99,,2013-12-10 01:40:00,
2013-12-09 20:46:00,39.2,35.6,29.94,West,262,11.5,-999.9,87,-99.99,,,-99.99,,2013-12-10 01:46:00,
2013-12-09 20:52:00,39.2,35.6,29.94,West,275,11.5,-999.9,87,-99.99,,,-99.99,,2013-12-10 01:52:00,
2013-12-09 20:58:00,39.2,35.6,29.94,West,275,11.5,-999.9,87,-99.99,,,-99.99,,2013-12-10 01:58:00,
2013-12-09 21:04:00,39.2,35.6,29.94,West,273,13.8,-999.9,87,-99.99,,,-99.99,,2013-12-10 02:04:00,
2013-12-09 21:10:00,39.2,35.6,29.94,West,273,13.8,-999.9,87,-99.99,,,-99.99,,2013-12-10 02:10:00,
2013-12-09 21:16:00,39.2,35.6,29.94,West,263,10.4,-999.9,87,-99.99,,,-99.99,,2013-12-10 02:16:00,
2013-12-09 21:22:00,39.2,35.6,29.94,West,262,10.4,-999.9,87,-99.99,,,-99.99,,2013-12-10 02:22:00,
2013-12-09 21:28:00,39.2,35.6,29.94,West,262,10.4,-999.9,87,-99.99,,,-99.99,,2013-12-10 02:28:00,
2013-12-09 21:34:00,39.2,35.6,29.94,West,266,11.5,-999.9,87,-99.99,,,-99.99,,2013-12-10 02:34:00,
2013-12-09 21:40:00,39.2,35.6,29.94,West,266,11.5,-999.9,87,-99.99,,,-99.99,,2013-12-10 02:40:00,
2013-12-09 21:46:00,39.2,35.6,29.94,West,260,12.7,-999.9,87,-99.99,,,-99.99,,2013-12-10 02:46:00,
2013-12-09 21:52:00,39.2,35.6,29.93,West,273,16.1,-999.9,87,-99.99,,,-99.99,,2013-12-10 02:52:00,
2013-12-09 21:58:00,39.2,35.6,29.93,West,273,16.1,-999.9,87,-99.99,,,-99.99,,2013-12-10 02:58:00,
2013-12-09 22:04:00,39.2,35.6,29.93,West,265,12.7,-999.9,87,-99.99,,,-99.99,,2013-12-10 03:04:00,
2013-12-09 22:10:00,39.2,35.6,29.93,West,265,12.7,-999.9,87,-99.99,,,-99.99,,2013-12-10 03:10:00,
2013-12-09 22:16:00,39.2,35.6,29.93,West,260,12.7,-999.9,87,-99.99,,,-99.99,,2013-12-10 03:16:00,
2013-12-09 22:22:00,39.2,35.6,29.93,West,270,11.5,-999.9,87,-99.99,,,-99.99,,2013-12-10 03:22:00,
2013-12-09 22:28:00,39.2,35.6,29.93,West,270,11.5,-999.9,87,-99.99,,,-99.99,,2013-12-10 03:28:00,
2013-12-09 22:34:00,39.2,35.6,29.93,West,273,15.0,-999.9,87,-99.99,,,-99.99,,2013-12-10 03:34:00,
2013-12-09 22:40:00,39.2,35.6,29.93,West,273,15.0,-999.9,87,-99.99,,,-99.99,,2013-12-10 03:40:00,
2013-12-09 22:46:00,39.2,35.6,29.93,West,273,13.8,-999.9,87,-99.99,,,-99.99,,2013-12-10 03:46:00,
2013-12-09 22:52:00,39.2,35.6,29.93,West,276,11.5,-999.9,87,-99.99,,,-99.99,,2013-12-10 03:52:00,
2013-12-09 22:58:00,39.2,35.6,29.93,West,276,11.5,-999.9,87,-99.99,,,-99.99,,2013-12-10 03:58:00,
2013-12-09 23:04:00,39.2,33.8,29.93,West,270,12.7,-999.9,81,-99.99,,,-99.99,,2013-12-10 04:04:00,
2013-12-09 23:10:00,39.2,33.8,29.93,West,270,12.7,-999.9,81,-99.99,,,-99.99,,2013-12-10 04:10:00,
2013-12-09 23:16:00,39.2,35.6,29.92,WNW,284,11.5,-999.9,87,-99.99,,,-99.99,,2013-12-10 04:16:00,
2013-12-09 23:22:00,39.2,35.6,29.92,West,263,11.5,-999.9,87,-99.99,,,-99.99,,2013-12-10 04:22:00,
2013-12-09 23:28:00,39.2,35.6,29.92,West,263,11.5,-999.9,87,-99.99,,,-99.99,,2013-12-10 04:28:00,
2013-12-09 23:34:00,39.2,33.8,29.93,West,264,12.7,-999.9,81,-99.99,,,-99.99,,2013-12-10 04:34:00,
2013-12-09 23:40:00,39.2,33.8,29.93,West,264,12.7,-999.9,81,-99.99,,,-99.99,,2013-12-10 04:40:00,
2013-12-09 23:46:00,39.2,33.8,29.93,WSW,253,11.5,-999.9,81,-99.99,,,-99.99,,2013-12-10 04:46:00,
2013-12-09 23:52:00,39.2,35.6,29.93,West,261,12.7,-999.9,87,-99.99,,,-99.99,,2013-12-10 04:52:00,
2013-12-09 23:58:00,39.2,35.6,29.93,West,261,12.7,-999.9,87,-99.99,,,-99.99,,2013-12-10 04:58:00,